TimeBST,TemperatureF,Dew PointF,Humidity,Sea Level PressureIn,VisibilityMPH,Wind Direction,Wind SpeedMPH,Gust SpeedMPH,PrecipitationIn,Events,Conditions,WindDirDegrees,DateUTC
12:20 AM,51.8,39.2,62,30.06,-9999.0,WSW,11.5,-,N/A,,Clear,250,2013-05-03 23:20:00
12:50 AM,50,39,57,30.06,22,WSW,11.5,,,,,240,2013-05-03 23:50:00
12:50 AM,51.8,39.2,62,30.06,-9999.0,WSW,11.5,-,N/A,,Clear,240,2013-05-03 23:50:00
1:20 AM,50.0,39.2,66,30.06,-9999.0,WSW,10.4,-,N/A,,Clear,250,2013-05-04 00:20:00
1:50 AM,50.0,41.0,71,30.04,-9999.0,SW,11.5,-,N/A,,Clear,230,2013-05-04 00:50:00
2:20 AM,48.2,41.0,76,30.04,-9999.0,WSW,11.5,-,N/A,,Clear,240,2013-05-04 01:20:00
2:50 AM,48.2,41.0,76,30.04,6.2,WSW,11.5,-,N/A,,Unknown,240,2013-05-04 01:50:00
3:20 AM,48.2,41.0,76,30.04,6.2,WSW,10.4,-,N/A,,Unknown,240,2013-05-04 02:20:00
3:50 AM,47,41,73,30.04,22,SW,8.1,,,,,220,2013-05-04 02:50:00
3:50 AM,46.4,41.0,81,30.04,6.2,SW,8.1,-,N/A,,Unknown,220,2013-05-04 02:50:00
4:20 AM,46.4,41.0,81,30.04,-9999.0,SW,9.2,-,N/A,,Clear,220,2013-05-04 03:20:00
4:50 AM,46.4,41.0,81,30.01,-9999.0,SW,8.1,-,N/A,,Clear,230,2013-05-04 03:50:00
5:20 AM,46.4,41.0,81,30.01,-9999.0,SW,8.1,-,N/A,,Clear,220,2013-05-04 04:20:00
5:50 AM,46.4,41.0,81,30.01,-9999.0,SW,8.1,-,N/A,,Clear,220,2013-05-04 04:50:00
6:20 AM,46.4,41.0,81,30.01,-9999.0,SSW,9.2,-,N/A,,Clear,210,2013-05-04 05:20:00
6:50 AM,49,43,74,30.03,19,SW,11.5,,,,,220,2013-05-04 05:50:00
6:50 AM,50.0,42.8,76,30.04,6.2,SW,11.5,-,N/A,,Partly Cloudy,230,2013-05-04 05:50:00
7:20 AM,50.0,42.8,76,30.04,6.2,SW,13.8,-,N/A,,Partly Cloudy,230,2013-05-04 06:20:00
7:50 AM,50.0,44.6,82,30.04,6.2,SW,11.5,-,N/A,,Partly Cloudy,220,2013-05-04 06:50:00
8:20 AM,51.8,44.6,76,30.04,6.2,SW,12.7,-,N/A,,Scattered Clouds,230,2013-05-04 07:20:00
8:50 AM,53.6,46.4,77,30.04,6.2,SW,13.8,-,N/A,Rain,Light Rain Showers,230,2013-05-04 07:50:00
9:20 AM,51.8,46.4,82,30.04,6.2,SW,12.7,-,N/A,Rain,Light Rain Showers,230,2013-05-04 08:20:00
9:50 AM,53,47,73,30.03,19,SW,17.3,,,Rain,Rain,220,2013-05-04 08:50:00
9:50 AM,53.6,46.4,77,30.01,6.2,SW,16.1,-,N/A,,Scattered Clouds,230,2013-05-04 08:50:00
10:20 AM,55.4,46.4,72,30.01,6.2,SW,17.3,-,N/A,,Scattered Clouds,230,2013-05-04 09:20:00
10:50 AM,55.4,46.4,72,30.01,6.2,SW,17.3,-,N/A,,Scattered Clouds,230,2013-05-04 09:50:00
11:20 AM,57.2,46.4,67,30.01,6.2,SW,16.1,-,N/A,,Scattered Clouds,230,2013-05-04 10:20:00
11:50 AM,55.4,48.2,77,30.01,4.3,SW,18.4,31.1,N/A,Rain,Rain Showers,230,2013-05-04 10:50:00
12:20 PM,55.4,50.0,82,30.01,6.2,SW,15.0,-,N/A,,Scattered Clouds,230,2013-05-04 11:20:00
12:50 PM,56,49,71,30.01,18,SSW,8.1,,,Rain,Rain,210,2013-05-04 11:50:00
12:50 PM,55.4,48.2,77,30.01,6.2,SW,9.2,-,N/A,,Scattered Clouds,220,2013-05-04 11:50:00
1:20 PM,60.8,50.0,68,30.01,6.2,WSW,13.8,26.5,N/A,,Scattered Clouds,250,2013-05-04 12:20:00
1:50 PM,60.8,44.6,55,29.98,6.2,West,18.4,-,N/A,,Scattered Clouds,260,2013-05-04 12:50:00
2:20 PM,62.6,42.8,48,29.98,6.2,West,25.3,-,N/A,,Scattered Clouds,270,2013-05-04 13:20:00
2:50 PM,62.6,37.4,39,30.01,6.2,West,24.2,35.7,N/A,,Partly Cloudy,270,2013-05-04 13:50:00
3:20 PM,60.8,35.6,39,30.01,6.2,West,24.2,-,N/A,,Partly Cloudy,270,2013-05-04 14:20:00
3:50 PM,62,38,29,30.01,25,WSW,20.7,,,,,250,2013-05-04 14:50:00
3:50 PM,60.8,35.6,39,30.01,6.2,West,20.7,-,N/A,,Partly Cloudy,260,2013-05-04 14:50:00
4:20 PM,59.0,35.6,42,30.01,-9999.0,West,17.3,-,N/A,,Clear,260,2013-05-04 15:20:00
4:50 PM,60.8,37.4,42,30.04,-9999.0,WSW,18.4,-,N/A,,Clear,250,2013-05-04 15:50:00
5:20 PM,60.8,35.6,39,30.04,-9999.0,WSW,18.4,-,N/A,,Clear,250,2013-05-04 16:20:00
5:50 PM,60.8,35.6,39,30.04,-9999.0,West,16.1,-,N/A,,Clear,260,2013-05-04 16:50:00
6:20 PM,60.8,37.4,42,30.04,-9999.0,West,15.0,-,N/A,,Clear,260,2013-05-04 17:20:00
6:50 PM,58,40,39,30.06,22,WSW,17.3,,,,Mostly Cloudy,250,2013-05-04 17:50:00
6:50 PM,59.0,39.2,48,30.04,-9999.0,WSW,16.1,-,N/A,,Clear,250,2013-05-04 17:50:00
7:20 PM,59.0,39.2,48,30.06,-9999.0,WSW,15.0,-,N/A,,Clear,250,2013-05-04 18:20:00
7:50 PM,57.2,37.4,48,30.06,-9999.0,West,15.0,-,N/A,,Clear,260,2013-05-04 18:50:00
8:20 PM,57.2,35.6,44,30.06,-9999.0,West,11.5,-,N/A,,Clear,270,2013-05-04 19:20:00
8:50 PM,55.4,35.6,47,30.09,-9999.0,West,16.1,-,N/A,,Clear,260,2013-05-04 19:50:00
9:20 PM,53.6,35.6,51,30.09,-9999.0,West,15.0,-,N/A,,Clear,270,2013-05-04 20:20:00
9:50 PM,53,37,43,30.12,22,West,12.7,,,,Overcast,260,2013-05-04 20:50:00
9:50 PM,53.6,35.6,51,30.12,-9999.0,West,13.8,-,N/A,,Clear,270,2013-05-04 20:50:00
10:20 PM,53.6,37.4,54,30.12,-9999.0,West,12.7,-,N/A,,Clear,270,2013-05-04 21:20:00
10:50 PM,51.8,39.2,62,30.12,-9999.0,West,12.7,-,N/A,,Clear,270,2013-05-04 21:50:00
11:20 PM,51.8,39.2,62,30.15,-9999.0,West,11.5,-,N/A,,Clear,280,2013-05-04 22:20:00
11:50 PM,50.0,39.2,66,30.15,-9999.0,West,15.0,-,N/A,,Clear,280,2013-05-04 22:50:00